�N����,����,�~����,�C��,���x,�C��,����,���ϕ���,�ő�u�ԕ���,�ő厞����,���˗�,�I�_���x,�n�����x,�ő啗���N��,DTYPE
"21/10/26","00:10",0.0,12.6,97.8,1012.1,275.2,1.2,2.6,316.1,0.00,12.3,15.9,"00:03:42",1
"21/10/26","00:20",0.0,12.4,98.3,1012.1,282.4,1.2,1.7,344.8,0.00,12.2,15.9,"00:11:46",1
"21/10/26","00:30",0.0,12.5,97.9,1012.3,281.2,1.1,1.9,259.2,0.00,12.2,16.0,"00:26:00",1
"21/10/26","00:40",0.0,12.4,98.4,1012.3,286.7,1.2,2.0,251.3,0.00,12.2,15.8,"00:37:28",1
"21/10/26","00:50",0.0,12.5,98.0,1012.3,299.1,1.3,2.5,327.8,0.00,12.2,15.9,"00:47:44",1
"21/10/26","01:00",0.0,12.5,97.9,1012.3,307.9,2.0,3.4,346.3,0.00,12.2,15.8,"00:52:48",1
"21/10/26","01:10",0.0,12.5,98.4,1012.1,324.2,2.0,4.7,341.1,0.00,12.3,15.9,"01:05:30",1
"21/10/26","01:20",0.0,12.6,97.8,1012.3,320.2,2.1,3.5,318.6,0.00,12.3,15.6,"01:18:50",1
"21/10/26","01:30",0.0,12.5,98.0,1012.1,325.5,1.8,4.3,338.2,0.00,12.2,15.7,"01:29:24",1
"21/10/26","01:40",0.0,12.6,97.4,1012.3,327.9,2.0,3.5,320.3,0.00,12.2,15.8,"01:35:34",1
"21/10/26","01:50",0.0,12.6,97.5,1012.1,325.9,2.3,4.8,346.3,0.00,12.3,16.0,"01:48:44",1
"21/10/26","02:00",0.0,12.7,97.3,1011.9,339.8,2.3,5.1,352.3,0.00,12.3,16.1,"01:57:52",1
"21/10/26","02:10",0.0,12.9,97.0,1012.1,332.5,2.5,4.1,343.1,0.00,12.5,15.9,"02:00:56",1
"21/10/26","02:20",0.0,12.9,96.9,1011.9,337.0,2.5,4.4,346.1,0.00,12.5,15.7,"02:12:24",1
"21/10/26","02:30",0.0,13.0,96.6,1011.9,330.6,2.2,4.3,336.1,0.00,12.5,16.0,"02:29:52",1
"21/10/26","02:40",0.0,13.2,96.2,1011.9,332.6,3.1,6.4,334.2,0.00,12.6,15.8,"02:33:36",1
"21/10/26","02:50",0.0,13.3,95.9,1011.9,331.0,2.7,5.4,342.9,0.00,12.7,15.8,"02:43:36",1
"21/10/26","03:00",0.0,13.3,95.4,1011.4,331.3,2.3,4.7,329.5,0.00,12.6,15.9,"02:56:16",1
"21/10/26","03:10",0.0,13.3,95.0,1011.6,330.3,2.2,4.4,327.1,0.00,12.6,15.7,"03:03:04",1
"21/10/26","03:20",0.0,13.4,94.3,1011.4,326.6,2.1,5.0,343.2,0.00,12.5,15.9,"03:16:56",1
"21/10/26","03:30",0.0,13.5,93.7,1011.6,309.9,1.6,2.9,315.9,0.00,12.5,15.6,"03:28:00",1
"21/10/26","03:40",0.0,13.6,92.8,1011.6,298.1,1.7,3.9,305.5,0.00,12.5,15.7,"03:37:04",1
"21/10/26","03:50",0.0,13.8,91.7,1011.6,311.8,2.5,4.9,337.0,0.00,12.5,15.6,"03:41:04",1
"21/10/26","04:00",0.0,13.9,90.5,1011.6,313.5,2.0,3.5,326.9,0.00,12.4,15.7,"03:55:04",1
"21/10/26","04:10",0.0,13.9,89.5,1011.6,292.6,1.8,4.4,302.2,0.00,12.2,15.8,"04:03:04",1
"21/10/26","04:20",0.0,13.4,89.0,1011.2,269.0,1.3,2.8,240.7,0.00,11.7,15.6,"04:10:40",1
"21/10/26","04:30",0.0,13.0,89.0,1011.6,267.6,1.1,1.8,248.0,0.00,11.3,15.7,"04:21:02",1
"21/10/26","04:40",0.0,12.7,89.2,1011.6,275.7,1.1,1.6,268.9,0.00,11.0,15.8,"04:32:00",1
"21/10/26","04:50",0.0,12.5,89.5,1011.4,328.2,0.7,1.8,286.1,0.00,10.9,15.8,"04:49:52",1
"21/10/26","05:00",0.0,12.4,90.0,1011.6,307.5,1.2,1.8,324.5,0.00,10.8,15.6,"04:54:22",1
"21/10/26","05:10",0.0,12.1,90.1,1011.4,296.3,0.5,1.1,340.7,0.00,10.6,15.7,"05:00:56",1
"21/10/26","05:20",0.0,11.7,90.6,1011.6,325.0,0.5,1.3,318.9,0.00,10.3,15.5,"05:18:42",1
"21/10/26","05:30",0.0,11.5,91.1,1011.9,318.5,1.5,2.1,310.7,0.00,10.1,15.6,"05:21:54",1
"21/10/26","05:40",0.0,11.0,91.4,1011.4,297.7,1.0,2.0,315.3,0.00,9.7,15.8,"05:37:04",1
"21/10/26","05:50",0.0,10.8,91.9,1011.6,314.9,1.0,2.0,310.6,0.00,9.6,15.7,"05:49:36",1
"21/10/26","06:00",0.0,10.7,92.4,1011.9,299.2,1.3,2.6,339.6,0.00,9.6,15.7,"05:58:32",1
"21/10/26","06:10",0.0,10.9,92.8,1011.6,305.7,1.5,2.2,352.4,0.00,9.8,15.4,"06:07:44",1
"21/10/26","06:20",0.0,10.8,92.9,1011.4,294.0,0.8,1.7,270.5,0.00,9.7,15.7,"06:11:52",1
"21/10/26","06:30",0.0,10.8,93.3,1011.9,313.4,1.3,2.1,331.0,0.00,9.8,15.6,"06:24:16",1
"21/10/26","06:40",0.0,10.5,93.5,1011.6,292.7,1.0,1.8,318.0,0.00,9.5,15.7,"06:33:20",1
"21/10/26","06:50",0.0,10.3,93.9,1011.6,291.0,0.7,1.4,306.0,0.00,9.4,15.5,"06:44:08",1
"21/10/26","07:00",0.0,10.3,94.2,1011.6,301.3,1.2,2.0,321.8,0.00,9.4,15.5,"06:52:16",1
"21/10/26","07:10",0.0,10.6,94.4,1012.1,284.1,1.1,1.7,308.0,0.00,9.8,15.4,"07:06:56",1
"21/10/26","07:20",0.0,11.5,94.6,1012.3,300.2,1.1,1.6,319.3,0.01,10.7,15.3,"07:17:52",1
"21/10/26","07:30",0.0,12.2,94.5,1012.6,309.9,1.0,1.6,323.3,0.02,11.4,15.5,"07:29:52",1
"21/10/26","07:40",0.0,12.4,94.7,1012.6,302.7,1.3,1.9,319.8,0.04,11.6,15.4,"07:32:00",1
"21/10/26","07:50",0.0,13.2,94.8,1012.6,305.6,0.8,1.4,324.6,0.05,12.4,15.5,"07:49:52",1
"21/10/26","08:00",0.0,13.6,94.6,1012.6,326.4,1.0,1.9,321.5,0.06,12.8,15.6,"07:56:08",1
"21/10/26","08:10",0.0,13.9,94.6,1012.8,272.1,0.5,0.9,311.5,0.05,13.1,15.5,"08:04:40",1
"21/10/26","08:20",0.0,14.3,94.5,1013.3,249.6,0.5,1.3,239.4,0.09,13.5,15.4,"08:12:56",1
"21/10/26","08:30",0.0,14.3,94.3,1013.3,217.7,0.5,1.1,222.4,0.04,13.4,15.4,"08:20:56",1
"21/10/26","08:40",0.0,14.3,94.3,1013.0,255.0,0.5,0.8,253.7,0.04,13.4,15.4,"08:30:08",1
"21/10/26","08:50",0.0,14.5,94.2,1013.5,247.0,0.7,1.0,279.7,0.04,13.6,15.3,"08:43:44",1
"21/10/26","09:00",0.0,14.8,94.6,1013.3,269.0,0.8,1.4,254.1,0.12,14.0,15.3,"08:58:40",1
"21/10/26","09:10",0.0,14.8,94.2,1013.3,261.4,1.0,1.6,252.9,0.08,13.9,15.4,"09:00:48",1
"21/10/26","09:20",0.0,15.2,94.2,1013.3,350.7,0.7,2.5,316.4,0.14,14.3,15.6,"09:10:40",1
"21/10/26","09:30",0.0,15.5,93.8,1013.5,309.8,1.0,2.8,343.5,0.10,14.5,15.7,"09:28:48",1
"21/10/26","09:40",0.0,15.2,93.5,1013.3,313.9,2.0,4.8,336.7,0.07,14.2,15.7,"09:34:24",1
"21/10/26","09:50",0.0,15.3,93.5,1013.5,310.6,1.6,2.7,305.5,0.07,14.3,15.5,"09:42:24",1
"21/10/26","10:00",0.0,15.7,93.1,1013.0,312.6,1.7,2.9,341.0,0.17,14.6,15.7,"09:53:52",1
"21/10/26","10:10",0.0,16.4,92.6,1013.3,292.9,1.1,2.4,280.5,0.16,15.2,15.7,"10:03:20",1
"21/10/26","10:20",0.0,16.4,91.3,1013.3,325.1,2.2,3.6,332.3,0.20,15.0,15.8,"10:15:52",1
"21/10/26","10:30",0.0,16.3,90.3,1013.0,306.6,1.6,3.7,335.7,0.06,14.7,15.6,"10:28:48",1
"21/10/26","10:40",0.0,16.5,89.7,1013.0,301.2,1.6,3.1,269.2,0.13,14.8,15.8,"10:34:08",1
"21/10/26","10:50",0.0,16.8,89.1,1013.3,299.9,1.5,2.8,320.5,0.14,15.0,15.7,"10:47:28",1
"21/10/26","11:00",0.0,17.5,87.9,1012.8,303.6,1.6,4.7,334.9,0.31,15.5,15.9,"10:58:32",1
"21/10/26","11:10",0.0,18.0,85.9,1012.3,300.1,1.8,2.8,259.4,0.33,15.6,15.9,"11:04:08",1
"21/10/26","11:20",0.0,17.6,84.0,1012.8,303.9,1.8,4.3,333.2,0.09,14.9,15.8,"11:10:56",1
"21/10/26","11:30",0.0,17.3,83.7,1012.6,320.7,1.3,3.5,339.4,0.04,14.6,16.1,"11:28:56",1
"21/10/26","11:40",0.0,17.4,84.0,1012.6,322.6,1.3,2.5,351.0,0.09,14.7,16.1,"11:34:48",1
"21/10/26","11:50",0.0,18.0,83.9,1012.3,286.5,1.2,2.6,306.8,0.20,15.3,16.0,"11:49:52",1
"21/10/26","12:00",0.0,18.5,83.3,1012.1,293.0,1.6,3.1,308.8,0.28,15.7,16.2,"11:50:40",1
"21/10/26","12:10",0.0,18.4,81.4,1012.1,270.5,1.2,2.7,247.6,0.11,15.2,16.2,"12:05:12",1
"21/10/26","12:20",0.0,18.3,80.5,1011.9,304.2,1.3,3.7,319.9,0.07,14.9,16.4,"12:18:56",1
"21/10/26","12:30",0.0,18.7,79.8,1011.6,313.8,2.0,4.2,340.6,0.18,15.2,16.4,"12:25:44",1
"21/10/26","12:40",0.0,18.8,79.4,1011.4,295.6,1.0,1.9,351.4,0.11,15.2,16.2,"12:30:16",1
"21/10/26","12:50",0.0,18.9,78.0,1011.2,327.9,1.5,4.5,329.1,0.15,15.0,16.2,"12:49:12",1
"21/10/26","13:00",0.0,19.5,76.3,1011.4,341.8,1.8,4.3,325.4,0.32,15.3,16.4,"12:50:08",1
"21/10/26","13:10",0.0,20.2,71.7,1011.4,337.8,2.6,5.1,324.4,0.50,15.0,16.4,"13:03:44",1
"21/10/26","13:20",0.0,20.6,68.6,1010.9,337.3,2.7,5.7,332.3,0.46,14.7,16.4,"13:16:08",1
"21/10/26","13:30",0.0,20.8,66.1,1010.7,345.7,2.3,4.8,333.2,0.39,14.3,16.7,"13:29:36",1
"21/10/26","13:40",0.0,20.7,66.0,1010.7,345.3,2.5,6.2,346.7,0.35,14.2,16.8,"13:38:40",1
"21/10/26","13:50",0.0,20.9,64.7,1010.7,348.6,2.8,6.0,345.2,0.37,14.0,16.8,"13:42:56",1
"21/10/26","14:00",0.0,21.0,65.4,1010.7,320.7,2.7,5.2,328.3,0.34,14.3,16.7,"13:59:04",1
"21/10/26","14:10",0.0,21.4,63.6,1010.7,329.1,1.7,3.9,331.7,0.33,14.3,16.8,"14:01:04",1
"21/10/26","14:20",0.0,21.4,63.2,1010.9,316.5,2.0,5.7,337.9,0.29,14.2,16.9,"14:16:08",1
"21/10/26","14:30",0.0,21.8,63.0,1010.4,343.2,2.0,4.3,8.7,0.37,14.5,17.1,"14:28:40",1
"21/10/26","14:40",0.0,22.2,61.5,1010.2,9.9,1.6,2.9,20.6,0.38,14.5,16.9,"14:36:48",1
"21/10/26","14:50",0.0,21.9,62.1,1010.7,359.9,1.8,4.2,21.1,0.32,14.4,17.2,"14:46:00",1
"21/10/26","15:00",0.0,21.6,63.0,1010.7,1.2,1.8,4.5,4.6,0.24,14.3,17.2,"14:53:12",1
"21/10/26","15:10",0.0,21.6,62.3,1010.4,5.3,1.6,3.5,15.2,0.24,14.1,17.3,"15:03:28",1
"21/10/26","15:20",0.0,21.9,61.1,1010.4,351.3,1.5,3.6,313.0,0.22,14.1,17.3,"15:17:28",1
"21/10/26","15:30",0.0,21.7,60.9,1010.4,355.2,1.6,3.4,333.0,0.17,13.9,17.2,"15:25:12",1
"21/10/26","15:40",0.0,21.0,60.9,1010.2,335.2,2.5,4.8,346.0,0.16,13.2,17.4,"15:33:36",1
"21/10/26","15:50",0.0,21.1,62.2,1010.7,333.4,2.1,4.3,320.7,0.15,13.6,17.6,"15:48:32",1
"21/10/26","16:00",0.0,21.0,62.2,1010.4,321.9,2.0,3.6,342.8,0.12,13.5,17.4,"15:52:00",1
"21/10/26","16:10",0.0,20.5,63.6,1010.7,350.1,2.2,4.2,344.5,0.10,13.4,17.5,"16:04:08",1
"21/10/26","16:20",0.0,20.4,64.6,1010.7,358.8,1.7,4.4,23.0,0.08,13.6,17.7,"16:16:08",1
"21/10/26","16:30",0.0,20.4,65.4,1010.9,336.4,1.5,2.7,327.8,0.05,13.7,17.6,"16:28:24",1
"21/10/26","16:40",0.0,19.5,64.9,1010.7,324.4,2.2,5.1,335.4,0.02,12.8,17.7,"16:35:36",1
"21/10/26","16:50",0.0,18.9,66.9,1010.9,339.7,1.8,6.7,343.1,0.01,12.7,17.7,"16:49:52",1
"21/10/26","17:00",0.0,18.5,68.0,1011.2,340.4,2.0,4.5,336.7,0.01,12.5,17.5,"16:55:28",1
"21/10/26","17:10",0.0,18.1,69.2,1011.2,342.9,2.0,4.3,337.1,0.00,12.4,17.7,"17:09:04",1
"21/10/26","17:20",0.0,17.8,70.0,1011.2,337.2,2.0,3.6,331.9,0.00,12.3,17.6,"17:16:32",1
"21/10/26","17:30",0.0,17.5,71.0,1011.4,341.6,1.7,4.7,337.5,0.00,12.2,17.6,"17:24:08",1
"21/10/26","17:40",0.0,17.2,72.0,1011.4,335.1,1.7,3.9,338.2,0.00,12.2,17.8,"17:32:40",1
"21/10/26","17:50",0.0,16.6,73.4,1011.9,330.3,1.7,2.5,329.9,0.00,11.9,17.6,"17:41:12",1
"21/10/26","18:00",0.0,16.3,75.0,1011.4,332.8,1.5,2.4,321.8,0.00,11.9,17.6,"17:51:04",1
"21/10/26","18:10",0.0,15.8,76.8,1011.6,332.2,1.1,2.5,312.6,0.00,11.8,17.6,"18:00:08",1
"21/10/26","18:20",0.0,15.1,78.6,1012.1,320.0,1.0,1.6,344.9,0.00,11.5,17.6,"18:11:12",1
"21/10/26","18:30",0.0,14.9,80.6,1012.1,306.1,1.1,2.6,308.7,0.00,11.6,17.5,"18:27:04",1
"21/10/26","18:40",0.0,14.8,82.5,1011.9,332.7,1.5,2.6,326.2,0.00,11.9,17.5,"18:32:20",1
"21/10/26","18:50",0.0,14.5,83.9,1012.3,328.2,1.5,2.6,329.5,0.00,11.9,17.5,"18:46:26",1
"21/10/26","19:00",0.0,14.3,85.1,1012.1,323.6,1.3,2.0,331.0,0.00,11.9,17.4,"18:56:28",1
"21/10/26","19:10",0.0,14.2,86.2,1012.3,328.6,1.7,2.6,328.2,0.00,12.0,17.4,"19:01:14",1
"21/10/26","19:20",0.0,14.2,87.1,1012.3,332.3,1.8,3.7,340.3,0.00,12.1,17.3,"19:17:16",1
"21/10/26","19:30",0.0,14.1,87.7,1012.6,330.0,1.7,3.1,342.0,0.00,12.1,17.6,"19:27:44",1
"21/10/26","19:40",0.0,14.0,88.3,1012.6,337.6,2.1,4.0,344.3,0.00,12.1,17.4,"19:36:44",1
"21/10/26","19:50",0.0,13.9,88.7,1012.6,335.5,2.1,3.5,341.3,0.00,12.1,17.3,"19:43:24",1
"21/10/26","20:00",0.0,13.7,89.2,1012.6,331.7,1.5,2.1,354.1,0.00,12.0,17.3,"19:51:32",1
"21/10/26","20:10",0.0,13.7,89.7,1012.8,327.3,1.5,2.9,333.6,0.00,12.1,17.3,"20:07:40",1
"21/10/26","20:20",0.0,13.6,90.0,1012.6,335.9,1.8,3.3,324.6,0.00,12.0,17.1,"20:17:14",1
"21/10/26","20:30",0.0,13.4,90.4,1012.6,305.8,1.5,2.7,343.7,0.00,11.9,16.9,"20:22:16",1
"21/10/26","20:40",0.0,13.2,90.6,1012.6,290.2,1.2,2.2,325.8,0.00,11.7,17.2,"20:37:56",1
"21/10/26","20:50",0.0,13.0,90.9,1012.8,336.6,1.3,2.4,336.0,0.00,11.6,17.0,"20:44:00",1
"21/10/26","21:00",0.0,12.7,91.2,1012.8,305.2,1.1,2.1,340.8,0.00,11.3,17.2,"20:50:26",1
"21/10/26","21:10",0.0,12.4,91.6,1012.6,308.7,1.0,2.0,323.4,0.00,11.1,16.8,"21:04:10",1
"21/10/26","21:20",0.0,12.1,91.9,1012.8,314.0,0.6,2.1,324.4,0.00,10.9,17.1,"21:19:56",1
"21/10/26","21:30",0.0,12.1,92.2,1013.0,307.9,1.6,2.1,314.2,0.00,10.9,16.9,"21:23:00",1
"21/10/26","21:40",0.0,12.4,92.4,1012.8,304.5,1.5,2.4,310.0,0.00,11.2,17.1,"21:36:06",1
"21/10/26","21:50",0.0,12.3,92.6,1013.0,302.2,0.6,1.6,312.4,0.00,11.2,17.2,"21:49:58",1
"21/10/26","22:00",0.0,12.0,92.8,1012.8,317.2,1.1,1.7,327.6,0.00,10.9,17.0,"21:50:32",1
"21/10/26","22:10",0.0,11.6,93.2,1012.8,320.1,1.6,2.0,325.0,0.00,10.6,16.7,"22:07:36",1
"21/10/26","22:20",0.0,11.8,93.6,1013.5,324.3,1.6,2.1,331.5,0.00,10.8,16.6,"22:17:48",1
"21/10/26","22:30",0.0,11.9,93.7,1013.3,308.6,1.5,1.8,333.8,0.00,11.0,16.9,"22:20:08",1
"21/10/26","22:40",0.0,11.9,93.9,1012.8,312.6,1.6,2.8,337.9,0.00,11.0,16.7,"22:37:18",1
"21/10/26","22:50",0.0,12.1,94.0,1013.0,321.6,1.6,2.5,318.1,0.00,11.2,16.8,"22:41:14",1
"21/10/26","23:00",0.0,12.4,94.3,1013.0,323.6,2.2,3.9,318.6,0.00,11.6,16.8,"22:59:24",1
"21/10/26","23:10",0.0,12.5,94.4,1013.0,328.4,2.0,4.5,336.6,0.00,11.7,16.7,"23:02:32",1
"21/10/26","23:20",0.0,12.3,94.4,1012.8,289.1,0.7,1.7,328.3,0.00,11.5,16.7,"23:17:34",1
"21/10/26","23:30",0.0,12.0,94.6,1013.0,296.7,0.7,1.6,273.1,0.00,11.2,16.5,"23:20:24",1
"21/10/26","23:40",0.0,11.8,94.8,1013.3,301.5,1.1,2.0,335.2,0.00,11.0,16.4,"23:36:02",1
"21/10/26","23:50",0.0,11.7,95.0,1013.0,316.2,1.3,2.0,326.1,0.00,11.0,16.5,"23:47:36",1
"21/10/26","24:00",0.0,11.5,95.1,1013.0,300.0,1.0,2.4,339.5,0.00,10.8,16.5,"23:52:32",1
